Tracking 25954 objects as of 14-Aug-2022
HD Live streaming from Space Station
objects crossing your sky now

ONEWEB-0320

Track ONEWEB-0320 now!
10-day predictions
ONEWEB-0320 is classified as:


NORAD ID: 49190
Int'l Code: 2021-083E
Perigee: 1,195.2 km
Apogee: 1,198.5 km
Inclination: 87.9 °
Period: 109.2 minutes
Semi major axis: 7567 km
RCS: Unknown
Launch date: September 14, 2021
Source: United Kingdom (UK)
Launch site: TYURATAM MISSILE AND SPACE COMPLEX (TTMTR)
aabbcc
Your satellite tracking list
Your tracking list is empty




NASA's NSSDC Master Catalog

Two Line Element Set (TLE):
1 49190U 21083E   22226.49612825  .00000027  00000-0  35258-4 0  9994
2 49190  87.9102 254.1505 0002174  85.5661 274.5719 13.18685451 45117
Source of the keplerian elements: AFSPC